Wind_Speed
14 14 13 12 11 11 11 12 12 13 13 12 13 13 11 10 13 16 20 23 24 24 25 26 26 25 24 23 22 22 22 22 25 29 28 25 24 23 23 22 21 20 19 18 16 15 13 12 11 11 10 10 8 7 5 4 2 1 1 3 4 3 2 2 2 2 2 2 2 3 3 3 3 3 3 4 4 5 6 6 7 7 8 7 7
16 17 15 13 12 12 12 12 12 13 13 13 13 13 12 10 10 12 16 20 23 24 25 26 27 27 26 25 23 22 21 21 24 30 30 27 26 25 24 24 22 21 20 19 18 16 14 13 12 11 11 11 10 8 7 6 4 3 1 1 2 3 2 1 2 2 2 2 2 2 3 3 3 3 4 4 5 6 6 7 7 8 8 8 7
18 20 20 17 15 14 13 13 12 13 14 13 13 13 13 12 10 9 12 16 18 20 22 24 26 27 27 26 25 23 22 21 24 30 31 29 28 26 25 25 23 22 21 20 18 16 15 13 12 12 11 11 11 10 9 7 6 5 3 2 2 3 2 1 1 1 1 1 1 1 2 3 4 4 5 5 5 6 7 7 7 8 8 8 7
18 18 20 19 18 17 16 15 14 14 14 15 14 13 13 12 11 9 9 12 14 17 18 21 24 26 27 27 27 25 24 23 24 28 32 31 29 28 26 26 24 23 22 21 19 17 16 14 13 13 12 12 12 11 10 9 8 7 6 5 3 3 3 2 1 0 1 1 1 2 2 4 5 5 6 6 6 6 7 7 8 8 8 8 7
18 17 18 20 22 22 21 19 18 17 16 16 15 15 14 12 12 11 10 10 12 14 16 18 21 24 26 27 27 27 26 24 24 27 31 32 31 30 28 27 26 25 24 22 20 19 17 16 15 14 13 13 13 12 11 10 10 9 9 8 6 5 4 4 3 2 2 2 3 3 3 4 5 6 6 6 6 6 7 8 8 8 8 8 8
18 18 20 23 25 24 23 23 22 21 20 18 17 17 17 15 13 13 11 11 11 13 15 17 19 21 24 26 27 27 27 25 24 27 31 32 33 32 29 28 27 25 25 23 22 20 19 18 16 15 15 14 14 13 13 12 11 11 10 10 9 8 6 5 5 4 4 4 4 4 4 5 6 6 6 6 6 7 8 8 9 9 8 8 9
19 19 21 23 24 23 23 24 23 24 23 21 20 20 19 18 16 15 14 13 13 13 14 16 19 21 22 25 27 28 28 26 24 26 31 33 33 33 30 29 28 26 26 24 23 21 20 19 18 17 16 15 15 14 14 13 12 12 12 11 11 10 9 8 7 6 5 5 5 5 5 5 6 6 6 6 6 7 8 9 9 9 8 8 9
22 19 21 24 24 23 23 24 23 24 24 23 23 23 21 20 19 18 17 16 15 15 15 16 18 21 22 24 27 29 30 29 26 26 30 33 34 34 31 29 29 28 27 25 24 23 22 21 19 18 17 16 16 15 15 14 14 13 12 12 12 12 11 10 9 8 7 6 5 5 5 5 6 6 5 6 6 7 8 9 9 9 8 8 9
26 25 26 26 24 24 25 25 23 22 22 22 23 24 24 23 21 20 18 17 17 17 16 16 17 19 21 24 26 28 30 30 28 26 28 33 34 34 33 30 30 29 27 26 25 24 23 22 21 20 19 18 17 16 16 15 14 13 12 12 13 13 12 12 11 10 9 7 6 5 5 6 6 6 6 6 6 7 8 8 9 8 9 9 9
27 30 32 28 25 25 26 26 24 21 21 21 22 24 25 25 23 21 19 19 19 19 18 17 18 18 20 23 25 27 29 30 29 26 26 30 33 34 33 32 31 30 28 27 26 25 24 23 22 21 21 20 19 18 17 16 15 14 13 13 13 14 14 13 13 12 11 10 8 7 7 7 6 6 6 7 7 7 7 8 9 8 9 9 10
26 29 30 28 27 27 27 26 26 23 22 22 22 23 24 25 25 24 22 20 21 22 21 19 18 18 19 22 24 26 28 30 30 26 25 29 32 34 34 33 32 31 29 28 27 25 25 24 24 23 22 21 20 19 18 17 16 15 14 14 14 14 14 14 14 13 13 12 11 10 9 8 8 7 7 7 7 7 7 8 8 9 9 10 10
28 30 29 28 28 30 28 26 26 25 23 24 25 25 25 26 27 26 24 22 22 23 23 20 17 17 18 21 23 25 28 30 31 29 28 29 31 34 35 34 33 32 31 30 28 27 26 25 25 24 23 22 21 20 19 18 17 16 16 15 15 15 15 15 14 14 14 13 13 12 12 11 10 9 9 8 8 8 8 8 8 9 10 10 10
28 30 29 28 29 29 29 27 28 27 26 27 28 28 28 28 28 27 26 24 23 24 24 21 17 17 18 21 23 26 29 31 33 31 30 30 31 34 35 35 34 33 33 31 30 28 27 27 26 25 24 23 22 22 20 19 19 18 18 17 17 16 16 16 16 15 15 15 14 14 13 13 12 11 10 10 10 9 9 9 8 9 10 10 10
30 29 28 28 27 27 27 28 30 29 28 29 30 30 29 28 29 29 29 27 25 25 25 22 20 19 19 19 21 25 29 32 33 32 31 31 32 33 34 34 34 34 34 33 31 30 29 28 27 27 26 25 24 23 22 21 20 20 19 19 18 18 18 18 17 17 16 15 15 15 15 14 13 13 12 11 11 11 11 10 9 9 9 10 11
33 31 30 28 27 26 27 28 29 28 28 29 31 31 30 30 30 31 32 31 28 26 27 26 24 22 20 18 20 22 27 31 33 33 33 33 33 33 33 33 33 34 34 33 32 31 30 29 28 28 28 27 26 25 24 23 22 21 21 20 20 19 19 19 19 18 17 17 16 16 16 15 15 14 13 13 12 12 12 11 11 10 10 10 11
36 34 33 31 28 27 29 28 27 28 30 31 32 32 32 32 32 33 34 33 31 29 28 28 26 25 22 20 21 20 22 29 35 36 36 35 34 34 33 33 32 33 33 32 33 33 32 31 30 29 29 28 27 26 25 24 24 23 22 22 22 22 21 21 21 20 19 18 18 17 17 17 16 16 15 14 13 13 13 13 12 12 11 11 11
36 34 33 32 30 30 31 30 28 29 32 34 33 33 33 33 34 35 35 35 34 31 30 29 27 27 25 22 22 21 22 27 33 35 35 34 32 33 33 33 33 33 33 33 33 33 33 31 31 31 30 30 29 28 27 26 26 25 24 23 24 24 23 23 23 22 21 20 20 19 19 18 18 17 16 15 15 14 14 14 13 13 13 12 12
34 34 32 31 29 29 32 33 31 31 33 35 34 33 33 34 35 36 35 35 35 33 31 29 29 28 25 22 22 23 24 26 28 31 34 34 33 32 33 34 34 34 33 33 33 33 33 32 32 32 31 31 30 30 29 29 28 27 26 25 26 26 25 25 25 24 23 22 21 21 20 19 19 18 17 16 16 15 15 14 14 14 14 14 13
35 34 33 31 29 28 31 32 33 33 33 34 34 32 32 34 35 36 35 34 35 33 31 31 31 29 26 24 23 22 24 26 26 28 31 33 34 34 34 35 36 35 33 33 33 34 34 33 33 33 32 32 32 31 31 31 30 29 28 27 27 27 27 26 26 26 25 24 23 22 21 20 19 19 18 17 16 16 15 15 15 15 15 15 14
37 36 34 33 30 30 31 32 33 34 34 34 33 32 32 34 35 35 35 35 35 35 33 33 32 31 29 26 24 22 22 23 24 26 28 30 34 35 36 36 37 36 34 33 34 35 35 34 34 33 33 33 33 33 33 32 32 31 30 29 29 29 28 28 28 28 27 26 25 23 22 22 20 19 18 17 17 17 17 16 16 16 16 16 16
36 37 36 35 33 32 32 33 34 35 35 33 33 32 33 34 34 34 34 36 37 37 33 33 34 34 31 28 26 24 22 22 22 24 26 29 33 36 38 38 37 36 36 36 36 36 37 36 35 35 35 35 35 35 35 35 34 33 32 32 31 31 30 30 29 29 28 28 27 25 24 23 22 21 20 19 18 18 18 18 18 18 17 17 17
37 39 37 37 38 35 33 34 35 37 37 35 34 34 34 34 35 35 35 36 38 37 33 35 37 37 35 32 30 29 25 22 22 25 26 28 32 37 40 41 38 37 39 39 38 38 37 37 37 37 37 37 37 37 37 37 37 36 35 35 33 32 32 31 31 30 29 29 28 27 26 25 24 23 22 22 21 20 20 20 20 19 19 19 19
37 37 37 39 40 37 34 35 35 37 39 38 37 36 35 35 36 37 36 37 38 37 37 39 41 40 39 37 35 33 30 26 25 27 26 26 29 35 40 43 42 40 40 41 40 39 38 38 38 39 39 40 40 40 40 39 39 38 38 37 36 34 34 33 32 32 31 30 30 30 29 28 27 26 25 24 23 23 22 22 22 21 21 21 20
35 36 39 41 39 37 37 37 36 35 37 38 38 38 37 37 38 37 37 37 38 38 38 41 43 43 42 40 38 36 32 29 29 29 26 25 27 31 37 40 40 40 40 42 42 40 40 40 41 42 42 43 43 42 42 42 41 40 40 39 38 36 36 35 34 34 33 32 32 32 31 30 29 28 27 27 26 25 25 24 24 23 23 23 22
38 39 42 43 41 40 40 39 38 37 37 37 37 39 39 39 39 38 36 37 39 40 39 39 42 45 45 44 41 37 34 33 33 31 27 26 27 29 33 36 36 38 40 40 40 40 41 43 44 45 45 44 45 44 44 44 43 42 42 41 40 39 38 38 37 36 35 34 34 34 34 33 32 31 30 29 28 27 27 26 26 26 25 25 24
39 39 41 42 41 41 39 38 38 38 38 37 36 38 39 39 40 40 38 38 40 42 41 41 43 45 48 49 45 40 39 38 36 33 30 27 26 29 33 34 34 36 38 37 38 39 41 44 46 46 45 45 45 45 44 44 43 43 42 42 42 41 41 40 40 40 39 38 37 37 36 36 34 33 32 31 31 30 29 29 28 28 27 27 26
38 39 41 41 41 41 39 37 38 38 37 36 37 40 40 39 40 41 39 39 40 41 42 43 44 46 49 51 50 46 43 42 39 36 32 29 27 29 32 32 32 34 35 35 36 37 40 43 43 44 44 43 43 43 43 42 42 42 42 42 41 41 42 42 42 42 42 41 40 39 39 38 37 36 34 33 33 33 32 32 31 30 30 30 29
39 40 41 42 42 42 39 37 39 39 38 38 38 41 42 40 39 40 41 40 40 41 43 43 45 47 50 52 53 50 46 45 42 38 36 33 30 31 32 31 31 32 34 35 34 36 39 40 40 41 41 41 40 40 40 39 39 40 40 40 40 41 42 42 42 42 42 42 42 41 41 40 39 38 36 35 34 34 34 34 33 33 32 32 32
41 40 41 41 41 41 40 39 39 38 39 39 39 41 42 41 40 41 41 39 39 42 43 42 45 47 49 52 54 52 50 49 45 40 38 36 33 31 32 32 32 32 33 34 34 36 39 38 38 39 39 38 39 38 38 37 37 37 38 38 39 40 41 41 41 41 41 42 42 42 42 41 40 39 38 37 36 35 35 35 35 35 35 34 34
40 40 40 39 40 40 38 39 40 39 40 40 40 41 43 42 41 40 38 37 39 41 41 41 44 46 49 52 54 54 53 52 49 43 40 38 34 32 32 33 33 32 33 34 35 37 38 37 37 38 38 38 38 38 37 37 37 36 36 37 37 38 39 39 38 39 39 40 40 41 41 40 39 39 38 37 37 36 36 36 36 36 36 36 36
39 40 39 39 39 40 38 39 40 40 41 42 41 42 44 42 41 40 38 38 40 41 39 40 42 44 47 51 53 53 53 53 51 48 43 38 35 32 32 32 33 33 34 35 36 37 37 37 37 36 37 37 37 37 37 37 36 36 36 36 36 36 37 36 36 37 37 37 37 38 38 38 37 37 37 37 37 37 37 36 36 36 36 37 37
38 39 39 39 39 40 40 40 40 40 42 43 41 41 43 43 41 41 38 36 38 40 39 39 41 42 44 48 49 49 51 55 55 51 45 39 35 34 33 32 32 34 35 35 35 36 38 37 36 36 36 36 37 37 36 36 35 35 36 36 36 36 36 36 36 36 35 35 34 34 34 35 36 36 36 36 37 37 36 36 37 37 37 37 37
37 38 38 38 38 38 38 39 39 39 40 41 40 41 43 43 42 41 38 33 34 37 37 36 38 41 43 46 45 43 46 54 56 52 45 39 37 36 34 33 32 33 34 34 34 36 37 37 35 35 35 35 36 36 36 35 34 34 35 36 37 37 36 36 35 34 33 33 33 32 32 32 33 33 33 33 34 34 35 35 35 35 36 36 36
36 36 36 36 36 37 37 37 37 37 37 38 37 37 39 40 40 40 38 35 32 34 36 37 39 42 44 45 44 40 41 46 51 50 45 40 38 38 37 35 33 33 34 35 37 38 37 36 35 35 34 34 34 35 35 35 34 34 34 35 37 37 37 35 33 33 33 32 32 31 31 31 31 31 31 31 31 31 32 33 33 33 33 34 34
34 35 35 35 35 35 36 36 35 34 35 35 35 34 34 35 36 36 36 36 36 35 37 40 42 44 45 46 44 40 37 39 43 45 43 39 37 38 39 38 36 35 36 37 38 37 36 36 35 33 32 32 32 33 34 34 34 34 34 35 37 37 36 35 33 33 33 32 32 31 31 31 30 30 30 30 29 29 30 31 31 31 32 32 33
32 34 34 34 33 33 33 33 32 32 32 32 33 33 32 31 32 33 33 35 37 37 36 40 44 45 46 47 46 43 40 38 38 39 39 37 35 36 40 42 40 38 37 37 38 37 36 36 33 32 31 30 29 30 31 31 32 33 33 35 36 36 36 35 34 34 34 33 32 31 31 30 30 30 30 30 30 29 29 29 30 30 31 31 31
29 32 32 31 30 30 29 29 29 30 30 30 31 31 32 32 31 32 34 35 37 36 36 40 45 47 47 46 46 47 45 42 39 38 38 37 35 37 42 44 43 41 40 39 39 39 39 36 34 32 31 29 28 28 27 27 29 31 32 34 35 35 34 34 34 34 34 34 33 33 32 30 30 30 30 30 30 29 29 29 29 30 30 31 31
26 27 28 28 27 27 28 27 27 27 27 29 30 30 32 33 33 33 35 36 36 36 36 39 45 49 49 47 46 48 47 44 41 40 40 38 38 40 43 44 45 44 41 40 41 41 40 37 35 33 30 28 27 26 24 23 24 27 29 32 33 34 34 34 34 34 34 34 34 34 33 31 30 30 30 30 29 29 29 30 30 30 31 32 31
25 25 24 25 26 26 26 26 26 26 25 25 27 28 30 32 33 33 34 36 36 36 36 39 44 49 50 48 46 47 46 43 40 40 42 42 42 42 43 43 45 44 42 42 43 43 40 38 35 34 32 29 26 24 24 23 23 24 26 28 28 31 33 34 35 35 34 35 35 34 33 32 31 30 30 30 29 28 27 28 29 30 31 31 31
24 25 23 24 25 24 23 24 24 25 24 23 23 25 28 30 31 32 33 35 36 36 36 39 43 47 49 47 46 47 46 42 40 41 42 43 44 44 43 43 44 43 44 44 43 41 39 37 36 34 32 30 28 25 25 25 24 25 25 23 23 27 31 34 35 35 35 35 35 33 32 31 30 30 30 29 29 28 27 26 27 28 29 30 29
20 23 22 21 21 19 19 21 23 24 24 24 24 25 27 29 29 30 31 32 34 34 35 38 41 44 46 47 47 48 47 44 42 41 40 41 43 45 44 43 43 43 45 45 43 40 38 37 37 36 33 31 30 28 26 26 26 26 24 21 22 25 28 31 34 35 35 35 34 32 31 30 29 29 29 29 29 29 29 27 26 27 28 28 29
20 21 20 18 17 15 16 18 20 22 23 24 24 24 26 27 28 28 27 27 29 31 32 35 38 42 45 47 48 48 49 46 43 41 40 40 42 44 43 43 42 42 44 44 43 41 40 38 38 37 34 31 30 30 28 26 27 26 24 22 23 25 26 29 33 35 34 34 33 31 31 30 29 28 28 29 30 30 29 27 27 27 28 28 28
19 19 18 17 15 14 15 16 18 20 21 22 23 23 24 25 26 26 25 25 26 27 29 31 34 39 43 46 47 48 48 46 43 42 41 41 42 44 44 43 42 41 42 43 43 43 41 39 38 37 33 30 31 31 29 28 28 26 22 21 22 25 26 28 32 34 34 33 32 31 31 30 29 28 27 28 29 29 28 26 26 26 26 26 27
18 17 16 16 16 15 15 16 17 18 19 21 23 23 22 23 25 25 25 25 26 27 27 27 29 32 37 42 46 47 47 45 43 43 43 43 44 45 46 45 45 44 43 43 45 45 43 41 40 37 33 32 33 33 31 30 28 23 19 19 21 23 25 25 28 32 33 32 31 31 30 30 28 27 27 27 28 28 27 25 24 24 25 25 25
17 17 15 14 16 16 17 17 17 17 18 19 20 20 20 22 24 24 25 24 24 26 27 26 26 28 32 37 41 44 45 44 43 43 43 44 45 46 47 47 46 44 42 42 45 46 45 44 41 38 37 36 35 34 34 32 29 23 20 21 22 23 23 23 25 29 32 31 30 30 30 30 29 28 27 27 28 28 27 25 24 24 23 23 23
16 16 14 14 15 16 16 16 17 17 17 17 17 17 18 21 23 24 26 24 21 22 25 25 24 26 29 34 38 41 42 44 44 43 42 43 43 45 47 46 45 44 42 42 45 45 44 44 42 40 40 38 36 35 35 34 31 27 25 25 25 25 25 24 24 27 30 31 31 31 31 31 31 29 27 26 27 28 28 27 26 25 23 23 23
16 15 14 14 15 15 15 15 15 17 17 16 16 17 18 20 22 23 24 25 24 23 24 24 23 23 24 29 35 39 41 42 43 42 40 40 40 42 44 44 44 44 44 45 47 46 45 45 44 41 40 38 37 36 36 35 33 30 29 28 26 26 27 28 27 27 29 30 31 32 32 31 31 30 28 27 27 28 29 28 27 26 26 25 25
15 15 14 14 14 14 14 13 13 15 16 16 18 19 17 16 19 20 19 21 23 22 21 21 23 23 23 25 30 33 36 38 40 40 39 39 39 40 41 42 44 46 46 47 49 48 48 47 45 42 39 37 36 36 34 33 32 31 29 26 23 24 26 29 29 29 29 29 30 31 30 30 30 31 29 28 29 29 29 28 28 28 28 28 28
13 15 15 13 12 11 11 11 11 13 14 16 19 21 18 14 14 15 16 18 18 19 20 20 20 21 22 24 26 27 29 32 35 38 39 40 40 41 42 43 45 48 48 48 49 50 50 49 46 43 39 36 35 34 33 31 30 30 28 24 23 24 26 29 29 27 27 28 29 29 29 28 27 28 29 29 29 29 28 28 28 29 29 29 28
13 15 15 13 10 9 8 8 8 10 11 14 18 20 19 16 12 12 14 11 8 11 17 17 16 17 18 20 23 25 24 25 29 34 37 38 39 41 43 43 44 46 48 49 51 50 49 49 47 43 39 37 35 33 31 29 28 28 28 27 26 25 26 28 28 26 27 28 29 28 27 25 24 25 27 28 28 28 27 27 28 28 28 29 28
13 13 14 12 10 8 6 5 5 7 9 11 14 17 19 17 13 16 18 11 6 9 12 11 8 12 17 19 20 21 22 23 26 31 33 35 38 41 41 41 42 45 47 50 52 50 49 49 46 41 38 37 35 33 30 28 27 27 27 27 28 29 30 31 31 30 29 29 28 27 25 25 25 25 25 25 25 26 26 27 26 26 26 26 26
Wind_Direction
285 277 276 276 273 275 281 286 295 300 306 316 322 326 317 289 261 247 244 245 247 249 251 254 257 258 258 257 258 259 256 250 241 236 235 236 235 235 234 230 225 218 214 212 212 213 215 218 222 224 221 218 219 223 233 246 260 313 54 93 110 101 74 45 27 24 22 18 26 34 32 24 15 4 358 359 358 356 354 350 350 349 346 342 339
293 279 273 270 268 270 276 279 283 289 295 305 315 326 330 318 287 259 249 247 247 248 249 251 254 256 257 255 255 256 253 246 238 233 231 231 233 234 234 231 227 222 217 215 214 214 214 217 222 226 225 222 222 223 228 235 244 250 255 129 128 128 110 68 32 26 32 27 22 23 20 12 2 353 350 352 354 352 347 343 341 341 339 336 333
303 288 281 279 276 270 269 268 268 275 282 289 300 314 327 331 317 286 264 255 251 250 249 251 254 256 256 254 253 251 249 245 236 231 229 228 230 233 233 231 227 224 220 218 217 217 216 218 222 226 228 227 226 227 228 231 238 244 243 227 181 163 159 145 65 33 45 57 26 337 343 346 344 340 341 347 349 348 342 335 331 332 333 332 330
307 297 289 291 296 291 279 269 261 262 269 276 284 295 308 322 324 313 290 271 261 258 255 255 255 255 254 253 253 250 247 245 237 229 227 226 228 231 233 231 228 226 222 220 219 218 218 218 221 225 228 229 229 231 231 231 236 243 246 244 226 202 193 190 190 197 202 205 229 269 300 321 329 327 331 338 342 342 338 331 328 330 332 331 329
302 297 292 296 304 306 298 285 271 262 263 266 271 279 287 298 309 312 306 292 277 268 263 260 256 254 252 250 250 248 246 244 239 230 225 225 225 227 231 229 228 229 227 223 221 219 219 219 221 224 226 228 230 232 233 233 236 243 249 250 246 234 218 208 205 209 216 224 239 257 281 300 312 316 321 330 336 337 334 333 333 334 334 333 333
294 289 289 295 300 303 303 297 285 270 265 265 265 269 275 282 290 295 299 297 290 282 273 266 260 255 251 248 246 245 244 241 238 232 226 224 223 224 228 227 225 227 229 228 225 222 222 221 221 224 226 229 231 233 235 236 238 243 249 254 255 250 242 229 217 214 218 228 244 257 272 286 297 306 313 325 333 332 331 334 337 337 338 338 338
279 282 287 289 292 294 296 296 288 276 267 265 265 265 269 273 278 282 285 286 286 286 282 273 264 257 251 246 244 243 244 240 235 234 229 224 222 223 226 225 222 224 227 228 227 227 226 225 224 225 228 231 233 234 236 238 241 244 249 253 256 256 253 248 238 228 224 229 242 257 271 280 288 297 309 322 330 330 330 336 339 340 342 342 342
268 279 287 283 281 287 291 289 282 274 269 267 267 266 267 268 271 273 276 279 280 282 283 278 268 258 250 245 242 240 242 241 234 232 230 224 221 222 225 224 221 222 225 227 228 228 229 229 229 229 231 233 235 236 237 240 244 247 251 253 256 256 255 254 251 247 241 239 245 256 270 280 288 295 305 318 327 329 331 335 339 341 343 345 344
270 279 289 285 278 281 287 286 278 269 268 271 272 271 270 269 270 271 273 274 275 278 280 279 276 265 252 243 240 237 238 238 232 228 226 223 220 221 223 223 220 220 223 226 228 228 231 233 232 232 233 235 236 238 239 242 245 248 250 252 254 256 255 254 253 254 253 253 256 260 267 276 286 294 303 312 320 327 329 332 338 340 342 345 345
276 280 287 285 278 281 284 280 276 269 264 267 271 273 273 274 275 273 271 272 272 274 275 275 278 274 260 246 240 236 234 234 230 227 225 223 221 220 222 222 219 219 222 226 229 229 231 235 235 234 234 235 237 239 241 243 246 248 248 249 251 254 256 256 255 255 256 257 260 262 266 271 279 288 296 304 312 320 324 329 333 335 337 341 343
280 284 290 285 278 282 284 276 272 268 261 262 265 267 270 274 277 274 271 272 269 269 271 271 273 272 264 252 244 237 233 231 228 227 226 223 221 220 221 221 219 219 221 225 227 228 231 235 236 235 235 235 236 238 240 244 246 248 248 248 249 251 254 256 258 260 260 261 262 263 266 269 274 280 288 296 305 312 318 323 327 328 330 334 338
280 286 289 287 283 282 282 274 266 262 258 261 262 262 268 275 278 273 270 271 268 265 266 267 268 268 262 253 246 240 234 228 224 226 227 223 221 220 220 221 219 218 221 223 225 226 230 234 235 236 236 235 236 237 239 242 245 248 248 247 247 248 250 253 256 259 262 263 264 264 267 270 272 277 282 288 296 305 310 315 319 321 323 326 330
279 280 281 283 286 283 278 269 261 258 257 259 261 262 266 273 277 272 267 269 266 262 262 262 262 263 257 250 245 241 235 228 222 224 226 225 222 219 219 220 219 219 221 223 224 226 229 232 234 236 236 236 236 237 237 239 242 245 247 247 246 246 247 250 252 255 258 261 263 264 265 267 270 274 278 282 287 294 300 306 309 311 314 317 321
280 278 277 278 281 281 276 268 260 255 253 256 261 261 261 267 274 271 267 267 265 261 261 259 255 256 257 253 249 243 237 231 225 225 227 226 224 219 218 219 220 220 220 222 224 227 229 231 233 235 236 236 235 236 237 238 240 242 244 246 247 246 246 248 249 252 255 257 260 262 264 265 267 269 273 277 281 285 290 295 299 302 304 308 312
284 281 278 277 277 275 272 267 261 255 252 256 259 259 259 263 268 269 267 269 266 260 258 256 252 253 256 255 251 243 236 232 228 226 227 226 224 221 219 219 220 221 221 222 225 228 230 231 233 234 236 236 236 236 237 239 241 242 244 246 247 247 246 248 249 251 253 256 257 258 260 262 262 264 266 269 274 279 284 287 292 295 298 300 302
285 284 282 279 277 275 271 267 263 259 257 258 258 258 259 261 264 266 267 268 266 259 253 252 251 250 251 254 253 243 234 231 227 225 225 223 223 223 221 219 220 221 222 223 226 228 229 231 233 234 235 236 237 237 238 240 242 244 245 246 246 246 246 247 248 250 251 253 255 256 258 258 259 259 260 262 266 272 278 283 287 290 294 296 297
283 285 285 282 280 277 273 269 264 260 258 257 257 259 261 262 264 264 264 265 263 259 253 250 249 247 245 250 253 244 234 230 227 227 227 224 224 224 223 222 221 221 221 223 225 227 229 230 232 234 235 236 237 238 239 240 243 245 246 246 246 246 245 246 247 248 250 251 253 255 256 257 257 256 256 257 260 265 271 277 282 286 290 292 294
284 285 286 285 283 279 274 269 264 259 256 256 258 260 262 263 263 263 263 262 259 257 256 252 248 244 241 246 252 247 239 232 227 228 228 225 225 227 227 225 223 221 220 222 224 227 228 230 232 233 235 236 236 238 239 240 242 244 245 246 247 247 245 245 245 247 249 250 252 253 254 255 256 256 255 255 257 260 265 270 276 280 283 286 288
285 285 285 284 282 278 272 267 265 262 258 257 258 259 262 262 262 262 262 258 255 254 254 250 246 243 240 242 248 248 242 235 229 229 230 228 228 228 227 226 224 221 220 221 224 226 227 229 231 233 235 236 237 238 239 241 242 243 245 246 246 246 246 245 245 245 247 249 250 251 252 253 255 256 256 256 256 258 261 265 270 273 277 280 282
283 284 284 283 280 276 271 267 266 266 263 260 261 261 263 264 264 263 260 255 252 251 250 247 246 244 239 239 245 248 244 237 233 233 234 233 232 229 226 225 224 223 223 224 225 226 227 228 230 232 234 237 238 239 240 241 242 243 245 246 246 245 245 244 244 244 245 247 248 249 251 252 253 255 256 256 257 258 260 262 266 269 273 276 278
283 285 284 284 282 279 274 268 265 265 263 262 261 262 263 265 265 263 258 254 250 249 249 248 246 242 237 238 244 245 241 238 237 236 237 237 233 229 225 224 223 225 227 228 227 227 228 229 230 232 234 236 238 240 241 242 243 243 243 243 244 244 243 244 245 245 246 246 247 247 248 250 252 253 255 256 257 259 261 263 265 268 270 272 275
281 284 284 285 286 282 277 270 265 262 262 262 261 259 258 260 261 259 255 252 250 247 246 247 246 241 238 239 244 243 238 238 241 241 241 239 235 230 226 225 225 228 230 229 229 229 229 230 231 233 235 237 238 240 241 243 243 243 243 242 242 242 242 243 244 245 245 245 247 247 247 248 250 251 253 255 257 259 261 265 266 268 270 271 272
276 279 281 281 281 281 278 274 268 263 263 263 261 256 255 255 255 255 252 250 249 244 238 239 241 240 240 239 240 239 234 235 239 242 244 243 237 231 229 227 227 230 231 230 231 232 232 233 234 235 237 238 240 241 242 243 243 243 243 242 242 242 243 243 243 244 245 245 245 247 247 248 248 250 252 254 255 258 260 263 266 268 270 270 271
272 273 277 278 277 280 279 274 270 268 267 266 263 258 255 253 251 251 251 250 250 246 240 238 239 239 239 238 237 235 232 235 238 239 242 244 239 232 230 230 228 230 231 230 232 235 237 237 237 238 238 239 241 241 242 243 243 243 242 242 242 243 244 245 246 246 246 246 246 247 247 247 247 248 250 252 253 255 257 260 263 265 267 269 270
273 272 275 276 277 279 279 275 270 268 267 265 262 259 255 252 251 250 249 250 252 249 244 242 240 238 238 237 235 232 231 234 236 236 236 240 241 235 231 230 229 229 231 231 234 237 239 239 239 240 240 241 241 241 243 243 243 243 243 242 242 243 243 245 248 249 249 249 248 248 247 246 246 247 248 251 253 254 255 256 259 261 264 266 268
274 276 276 276 276 275 274 272 268 266 265 263 260 257 254 252 252 252 249 247 247 246 243 242 240 237 236 236 234 230 228 230 233 234 233 234 238 238 233 229 229 230 231 232 234 236 238 239 239 240 241 241 241 241 242 243 243 243 243 243 243 243 243 244 247 250 251 251 249 248 248 246 246 245 246 249 252 254 255 255 257 260 261 263 265
277 279 279 279 278 275 270 268 266 265 263 262 259 256 254 252 252 253 250 245 243 243 241 241 240 236 233 233 232 229 227 228 229 230 231 230 233 238 236 231 229 231 231 231 232 234 236 237 237 238 238 239 240 241 242 242 242 242 243 243 243 243 243 243 246 248 250 250 249 248 248 247 246 245 245 246 249 252 255 257 258 260 261 261 262
282 281 280 279 278 275 271 268 267 264 262 261 258 256 253 252 252 253 252 246 243 245 245 243 241 237 231 230 229 228 229 228 227 228 230 229 229 236 239 233 230 231 231 231 231 232 233 234 234 235 236 237 239 240 241 241 241 241 241 241 242 243 243 244 245 246 248 249 249 249 248 248 248 247 246 247 248 250 253 257 259 261 261 261 261
283 280 277 276 274 273 271 267 263 261 260 260 258 256 255 253 254 254 253 250 246 246 246 243 242 238 232 229 227 227 229 230 227 227 229 228 228 233 238 236 231 230 231 232 231 232 233 233 233 234 235 236 238 239 239 240 240 240 240 240 241 242 243 244 245 246 248 249 249 249 249 249 249 249 249 249 249 250 252 255 258 260 261 262 262
279 275 273 271 268 268 269 267 263 260 258 257 255 256 255 255 255 254 252 252 248 245 243 241 241 238 233 229 226 226 228 228 228 228 229 228 226 230 236 236 231 228 230 232 233 234 235 235 235 235 235 236 237 239 240 240 241 240 240 240 239 240 241 242 244 246 248 249 250 250 249 249 249 251 252 252 252 253 253 254 256 258 259 261 262
275 272 271 267 264 262 262 263 263 260 258 256 255 255 255 255 256 255 253 251 250 247 242 238 239 238 233 228 224 223 225 225 225 227 228 226 224 226 232 234 231 228 229 231 232 235 237 237 238 238 238 238 237 238 239 240 240 241 240 239 238 238 239 242 244 245 247 248 249 249 250 250 250 251 253 254 254 254 254 254 254 255 256 257 259
272 270 268 265 262 261 259 259 258 256 254 254 254 254 254 255 255 254 253 252 250 247 239 234 238 238 234 228 223 222 224 223 222 225 226 225 223 223 228 232 231 228 228 228 230 235 238 238 239 241 242 242 240 238 238 238 239 240 241 240 239 238 240 242 244 245 246 248 248 248 249 249 250 251 252 253 254 254 254 253 252 252 253 254 256
271 269 267 265 262 260 260 261 260 256 252 253 254 254 253 253 253 252 251 250 249 246 238 234 238 240 235 229 224 222 223 222 222 223 225 224 223 223 225 230 231 229 228 226 226 233 238 239 239 241 243 244 243 241 239 239 239 239 240 241 241 241 242 244 246 246 246 246 246 248 249 250 251 252 253 253 253 252 252 251 250 250 251 253 255
274 271 268 266 264 262 261 263 264 260 255 255 256 254 252 252 253 252 251 250 251 248 240 234 236 239 236 230 225 225 226 224 221 221 222 223 225 225 225 229 232 231 228 225 225 230 236 238 238 239 242 242 242 241 240 240 240 239 239 240 242 243 244 247 249 249 247 246 246 248 249 251 252 253 254 254 253 252 251 250 250 250 251 253 255
276 274 270 267 267 267 266 265 265 261 257 256 255 252 251 252 254 253 252 253 255 252 244 235 233 235 234 230 226 226 226 221 217 217 218 220 225 226 226 229 232 232 229 226 227 229 235 239 238 238 239 238 237 239 239 240 241 241 240 240 241 243 244 246 248 249 249 249 249 249 248 250 251 253 253 254 253 252 251 251 251 252 252 254 255
277 275 271 267 266 268 268 265 264 262 259 257 255 252 251 251 251 251 252 254 255 252 244 236 233 232 232 230 228 226 224 219 217 218 219 221 224 225 226 227 231 232 229 227 227 229 233 237 238 237 237 235 234 236 238 240 242 243 243 243 243 244 245 246 247 247 248 248 249 249 249 249 250 252 253 253 253 253 252 252 252 253 253 253 253
282 277 270 266 266 267 267 263 261 262 261 257 254 254 253 251 248 248 252 255 255 252 243 234 231 232 231 231 231 230 228 225 223 224 225 225 226 225 225 226 229 230 227 226 227 228 228 230 233 236 236 233 232 233 236 240 242 243 243 244 245 246 246 247 248 249 248 247 247 248 249 250 250 251 252 252 252 252 252 252 252 252 252 251 251
287 285 273 266 267 267 266 262 257 256 257 254 252 252 253 252 251 250 253 254 252 249 241 232 230 231 231 232 233 231 230 230 228 227 228 229 228 227 226 227 228 227 226 225 226 226 225 226 230 236 239 236 232 234 240 245 246 244 241 241 243 245 245 246 248 249 249 247 246 246 248 250 250 250 250 250 250 251 251 251 251 251 250 249 249
289 296 283 268 267 265 264 262 256 252 253 252 253 254 254 255 256 255 255 254 250 246 240 231 229 231 232 232 232 229 228 230 232 231 231 231 231 231 230 229 228 226 225 226 225 225 227 228 231 236 241 240 237 239 247 251 251 250 245 243 245 245 244 244 246 247 247 247 246 246 248 249 250 250 250 249 249 250 250 251 251 250 250 249 248
292 305 298 275 266 264 263 260 255 254 255 255 257 260 259 258 258 258 258 254 249 246 240 233 230 231 230 229 229 228 227 228 232 234 233 231 232 233 232 229 226 224 225 226 224 226 230 231 232 235 240 243 241 243 248 249 250 251 248 247 251 250 246 244 245 246 246 246 245 246 247 249 251 251 251 249 248 249 250 251 251 251 249 248 248
298 307 302 280 268 267 265 260 256 255 258 261 265 266 264 263 262 261 259 255 249 246 243 236 231 230 228 226 226 227 228 228 230 233 234 232 232 233 232 229 226 224 226 226 224 226 230 231 232 236 240 241 243 246 247 246 247 249 248 249 254 255 252 248 246 246 246 245 244 243 244 247 249 250 250 248 248 249 250 250 250 250 249 248 248
301 303 298 282 272 273 272 266 261 259 261 265 265 266 265 263 262 260 257 254 251 248 245 239 233 229 226 225 225 226 227 229 230 232 235 233 232 233 232 229 227 225 225 227 226 226 228 230 232 237 239 238 241 246 247 245 245 247 247 250 256 258 258 252 246 244 245 245 243 242 241 243 246 249 248 247 247 249 250 250 250 250 249 248 248
305 301 294 283 277 279 278 274 270 267 265 262 262 268 268 259 254 253 251 253 255 252 247 243 237 231 226 224 224 225 227 229 230 232 234 233 231 232 232 231 228 225 226 229 229 228 228 230 233 236 237 235 239 245 246 242 242 244 247 254 259 259 257 251 243 242 244 245 244 242 241 241 244 246 246 245 245 247 248 248 248 249 249 249 252
313 306 293 285 283 284 282 277 274 272 268 262 263 272 271 255 247 248 248 249 253 253 249 245 240 234 228 225 224 225 227 229 229 229 231 231 231 232 234 233 230 228 230 231 231 230 230 232 234 235 234 235 239 242 243 240 239 242 249 256 259 258 252 244 239 240 243 243 242 242 242 242 243 245 245 244 243 244 243 243 246 249 252 253 254
318 311 296 284 284 286 285 280 275 272 271 267 264 268 266 253 244 244 245 243 245 248 249 246 241 237 231 226 225 226 226 226 225 226 228 230 230 231 233 233 232 231 233 233 232 232 232 233 234 234 234 237 240 241 241 241 240 244 253 259 259 253 243 236 235 239 241 241 241 242 244 245 245 245 246 244 243 243 241 242 247 253 255 254 252
312 308 299 287 284 285 286 283 277 275 275 272 262 256 257 252 243 241 243 245 247 249 248 245 241 238 234 229 226 226 225 224 224 224 226 229 231 231 231 232 232 232 232 232 232 232 233 233 234 233 235 237 239 240 240 241 243 248 255 260 259 249 239 235 236 237 238 239 239 241 243 245 245 245 245 244 243 243 243 243 246 249 250 251 251
310 309 301 289 286 289 289 283 278 275 274 273 260 248 246 246 243 241 243 247 251 250 248 244 240 237 237 234 230 227 225 224 224 223 225 228 230 230 231 231 231 232 232 231 230 230 230 231 232 233 234 236 239 241 240 240 244 250 257 262 261 251 240 238 238 237 237 238 238 240 242 243 243 243 243 243 243 242 241 242 243 243 245 248 252
313 316 307 291 285 290 292 287 280 272 266 260 250 244 243 244 243 243 244 248 248 244 242 243 240 235 235 236 235 232 228 225 224 223 224 226 226 227 229 229 230 232 231 230 228 227 227 228 229 231 233 235 237 240 240 240 243 249 254 256 257 251 243 239 237 235 235 237 238 241 243 242 241 241 240 241 242 241 240 240 241 243 245 249 253
320 320 313 299 288 290 296 295 285 272 260 249 243 242 244 246 243 238 241 246 244 236 233 235 237 235 231 230 231 231 230 227 223 223 224 225 226 226 227 230 233 234 233 230 226 224 224 226 228 230 231 232 235 237 238 238 239 244 246 244 246 248 243 238 235 233 234 237 239 241 242 241 242 241 239 239 241 241 240 240 241 243 246 249 253
331 322 313 308 300 293 299 306 296 278 261 248 242 239 241 247 241 217 219 227 222 225 231 233 240 243 236 230 228 226 228 227 224 224 224 222 222 225 226 228 231 232 231 227 222 220 221 224 227 229 228 229 232 236 237 237 237 241 243 241 242 244 238 233 235 239 240 241 241 242 240 236 235 237 237 237 239 240 240 241 243 245 247 250 253
332 323 313 312 309 299 302 326 323 294 269 253 245 237 236 242 233 214 219 222 175 187 202 191 203 235 233 232 232 224 218 217 215 217 217 213 214 220 222 222 222 222 222 220 218 217 218 222 226 228 227 228 232 235 237 238 239 242 245 243 241 241 239 239 246 251 248 244 241 239 235 229 228 231 233 234 236 239 241 243 245 246 247 249 252
Height
5917 5915 5914 5913 5914 5915 5915 5915 5914 5914 5913 5913 5912 5911 5911 5909 5909 5909 5910 5911 5912 5913 5915 5916 5917 5918 5919 5921 5921 5922 5922 5923 5924 5925 5926 5928 5930 5930 5931 5931 5931 5932 5932 5931 5932 5932 5933 5934 5935 5936 5936 5937 5937 5938 5939 5939 5939 5939 5939 5939 5939 5939 5940 5940 5940 5940 5940 5940 5939 5939 5938 5938 5938 5938 5938 5938 5937 5937 5936 5935 5935 5934 5934 5933 5932
5916 5915 5913 5911 5911 5911 5912 5912 5912 5912 5911 5911 5911 5910 5910 5908 5907 5907 5907 5908 5908 5910 5911 5912 5914 5915 5917 5918 5919 5920 5920 5921 5921 5922 5923 5925 5927 5929 5930 5930 5931 5931 5931 5931 5931 5931 5932 5933 5934 5935 5935 5936 5937 5937 5938 5938 5939 5939 5939 5939 5939 5939 5940 5940 5940 5940 5940 5940 5939 5939 5939 5939 5938 5938 5938 5937 5937 5936 5936 5935 5935 5934 5933 5933 5932
5915 5915 5913 5911 5909 5908 5908 5908 5909 5909 5909 5909 5909 5908 5908 5908 5906 5905 5905 5905 5905 5906 5908 5909 5910 5911 5913 5915 5917 5918 5918 5919 5918 5919 5920 5922 5925 5927 5929 5929 5930 5930 5930 5931 5931 5931 5931 5932 5933 5934 5934 5935 5936 5936 5937 5938 5938 5939 5939 5939 5939 5939 5939 5939 5940 5940 5940 5940 5940 5939 5939 5939 5939 5938 5938 5937 5937 5936 5936 5935 5935 5934 5933 5933 5932
5913 5913 5913 5912 5910 5908 5906 5905 5906 5906 5907 5907 5907 5907 5907 5907 5906 5905 5904 5903 5903 5903 5904 5906 5907 5908 5909 5911 5913 5914 5915 5916 5916 5916 5917 5919 5922 5924 5926 5927 5928 5929 5929 5930 5930 5930 5930 5931 5931 5932 5933 5934 5935 5935 5936 5937 5937 5938 5939 5939 5939 5939 5939 5939 5939 5940 5940 5940 5940 5939 5939 5939 5939 5938 5938 5937 5937 5937 5936 5935 5935 5934 5933 5933 5932
5910 5911 5911 5910 5909 5907 5906 5905 5904 5904 5904 5904 5905 5905 5905 5906 5905 5905 5904 5903 5901 5901 5901 5902 5903 5904 5906 5908 5910 5911 5912 5913 5914 5914 5915 5916 5919 5921 5923 5925 5926 5927 5928 5928 5929 5929 5929 5930 5930 5931 5932 5933 5934 5934 5935 5936 5937 5937 5938 5939 5939 5939 5939 5939 5939 5939 5939 5940 5939 5939 5939 5939 5939 5938 5938 5937 5937 5937 5936 5935 5935 5934 5933 5933 5932
5907 5908 5908 5907 5906 5905 5904 5904 5903 5902 5902 5902 5902 5903 5903 5903 5904 5903 5902 5901 5900 5899 5899 5899 5900 5900 5902 5904 5906 5908 5909 5910 5911 5911 5912 5914 5916 5918 5920 5922 5923 5925 5926 5927 5928 5928 5928 5929 5929 5930 5931 5932 5933 5933 5934 5935 5936 5937 5937 5938 5939 5939 5939 5939 5939 5939 5939 5939 5939 5939 5939 5939 5938 5938 5937 5937 5937 5936 5936 5935 5935 5934 5933 5933 5932
5903 5904 5904 5903 5902 5900 5900 5901 5901 5900 5900 5900 5900 5900 5901 5901 5901 5901 5900 5900 5899 5898 5897 5897 5897 5897 5898 5900 5902 5905 5906 5907 5908 5909 5909 5911 5914 5916 5917 5919 5920 5922 5923 5925 5927 5927 5928 5928 5928 5929 5930 5931 5931 5932 5933 5934 5935 5936 5936 5937 5938 5938 5938 5938 5938 5938 5938 5939 5939 5939 5939 5938 5938 5937 5937 5937 5937 5936 5936 5935 5935 5934 5933 5933 5932
5898 5899 5899 5898 5898 5896 5896 5896 5897 5897 5897 5897 5897 5897 5898 5898 5897 5898 5898 5898 5897 5896 5895 5894 5894 5894 5895 5897 5898 5901 5902 5904 5906 5906 5907 5909 5911 5913 5915 5916 5917 5919 5921 5923 5924 5925 5927 5927 5927 5928 5929 5930 5930 5931 5932 5933 5934 5935 5935 5936 5937 5937 5938 5938 5938 5938 5938 5938 5938 5938 5938 5938 5938 5937 5937 5936 5936 5936 5935 5935 5935 5934 5933 5933 5932
5895 5896 5896 5895 5895 5894 5893 5893 5892 5893 5893 5894 5895 5895 5895 5895 5895 5895 5895 5895 5894 5894 5893 5892 5891 5891 5892 5893 5894 5897 5898 5900 5902 5903 5905 5906 5908 5910 5912 5914 5915 5917 5919 5920 5922 5923 5924 5925 5926 5927 5927 5928 5929 5930 5931 5931 5932 5933 5934 5935 5936 5936 5937 5937 5937 5937 5937 5937 5937 5937 5937 5937 5937 5937 5936 5936 5936 5935 5935 5935 5934 5934 5933 5933 5932
5892 5892 5892 5893 5892 5891 5890 5890 5890 5889 5890 5890 5891 5892 5893 5893 5893 5893 5892 5892 5892 5891 5891 5890 5889 5888 5889 5889 5890 5892 5894 5896 5898 5900 5903 5904 5906 5908 5910 5911 5913 5914 5916 5918 5919 5921 5922 5923 5925 5925 5926 5927 5928 5929 5930 5930 5931 5932 5933 5933 5934 5935 5936 5936 5936 5936 5936 5936 5937 5937 5937 5937 5937 5936 5936 5936 5935 5935 5935 5934 5934 5934 5933 5933 5932
5889 5888 5888 5889 5889 5888 5887 5887 5887 5887 5886 5887 5888 5889 5889 5890 5890 5890 5890 5890 5889 5889 5888 5888 5887 5887 5886 5886 5887 5889 5890 5892 5895 5898 5900 5901 5903 5905 5907 5909 5910 5912 5913 5915 5916 5918 5920 5921 5923 5924 5925 5925 5926 5927 5928 5929 5929 5930 5931 5932 5932 5933 5934 5935 5935 5935 5935 5935 5936 5936 5936 5936 5936 5936 5936 5935 5935 5935 5934 5934 5934 5933 5933 5933 5932
5887 5886 5885 5885 5884 5884 5884 5884 5884 5884 5884 5883 5884 5884 5885 5886 5887 5887 5887 5887 5887 5886 5885 5885 5885 5885 5884 5884 5884 5885 5886 5888 5891 5894 5896 5898 5900 5902 5904 5906 5907 5909 5910 5912 5913 5915 5917 5919 5920 5922 5923 5924 5925 5926 5926 5927 5928 5928 5929 5930 5930 5931 5932 5933 5933 5934 5934 5934 5934 5935 5935 5935 5935 5935 5935 5935 5935 5934 5934 5934 5933 5933 5933 5932 5932
5885 5884 5882 5880 5880 5881 5881 5880 5880 5881 5881 5880 5880 5881 5881 5882 5882 5883 5884 5884 5884 5883 5883 5883 5883 5883 5882 5882 5882 5882 5883 5884 5887 5889 5891 5894 5897 5899 5901 5902 5904 5906 5907 5908 5910 5912 5914 5916 5918 5919 5921 5922 5923 5924 5924 5925 5926 5927 5927 5928 5928 5929 5930 5931 5931 5931 5932 5932 5932 5933 5933 5934 5934 5934 5934 5934 5934 5934 5933 5933 5933 5933 5932 5932 5932
5880 5879 5878 5877 5877 5877 5876 5876 5876 5877 5877 5877 5877 5877 5877 5878 5879 5880 5880 5881 5881 5881 5881 5881 5881 5880 5880 5881 5881 5880 5880 5881 5884 5886 5887 5890 5892 5895 5897 5899 5900 5902 5903 5905 5907 5909 5911 5913 5915 5916 5918 5919 5921 5922 5922 5923 5924 5924 5925 5926 5927 5927 5928 5928 5929 5929 5930 5930 5930 5931 5932 5932 5932 5933 5933 5933 5933 5933 5933 5933 5933 5932 5932 5931 5931
5872 5873 5873 5872 5873 5873 5872 5871 5871 5872 5873 5874 5874 5874 5874 5874 5875 5876 5876 5877 5878 5878 5878 5878 5878 5877 5878 5879 5878 5877 5878 5879 5881 5882 5883 5885 5887 5891 5893 5895 5897 5898 5900 5902 5904 5906 5908 5910 5912 5913 5915 5916 5918 5919 5920 5921 5921 5922 5923 5924 5925 5925 5926 5927 5927 5927 5928 5928 5928 5929 5929 5930 5930 5931 5931 5931 5931 5932 5932 5932 5931 5931 5931 5931 5931
5866 5866 5867 5868 5868 5868 5867 5867 5867 5868 5868 5869 5870 5870 5870 5869 5870 5871 5871 5873 5874 5873 5873 5874 5875 5875 5875 5876 5876 5876 5876 5876 5876 5877 5878 5881 5884 5887 5889 5892 5893 5895 5897 5899 5901 5903 5905 5907 5909 5911 5912 5914 5915 5916 5918 5918 5919 5920 5921 5922 5922 5923 5924 5924 5925 5925 5926 5926 5926 5926 5927 5927 5928 5928 5929 5929 5929 5930 5930 5930 5930 5930 5930 5930 5929
5862 5861 5862 5862 5863 5863 5862 5862 5863 5863 5863 5864 5865 5866 5865 5865 5865 5866 5866 5868 5869 5869 5869 5870 5871 5871 5872 5874 5874 5874 5874 5872 5873 5875 5877 5879 5882 5884 5886 5888 5890 5891 5894 5896 5898 5900 5902 5904 5906 5908 5909 5911 5912 5913 5915 5916 5917 5918 5919 5919 5920 5920 5921 5922 5922 5923 5923 5924 5924 5924 5924 5925 5925 5926 5926 5927 5927 5928 5928 5928 5928 5928 5928 5928 5928
5855 5855 5855 5856 5857 5857 5857 5856 5857 5859 5859 5859 5860 5861 5861 5861 5860 5860 5861 5862 5863 5865 5866 5867 5868 5868 5869 5871 5871 5871 5871 5870 5872 5873 5874 5877 5879 5881 5883 5885 5886 5888 5890 5892 5894 5897 5899 5901 5902 5904 5906 5908 5909 5911 5912 5913 5914 5915 5916 5916 5917 5917 5918 5919 5920 5920 5921 5921 5922 5922 5922 5923 5923 5923 5924 5925 5925 5925 5925 5926 5926 5926 5926 5926 5926
5849 5850 5850 5850 5851 5852 5852 5851 5851 5852 5853 5853 5854 5855 5856 5855 5855 5855 5856 5857 5858 5861 5862 5862 5864 5866 5867 5867 5867 5868 5868 5868 5869 5870 5871 5874 5875 5877 5879 5880 5882 5884 5886 5888 5890 5893 5895 5897 5899 5901 5902 5904 5906 5908 5909 5909 5910 5911 5912 5913 5914 5914 5915 5916 5916 5917 5918 5918 5919 5919 5920 5920 5921 5921 5922 5923 5923 5923 5923 5924 5924 5924 5924 5924 5924
5844 5844 5844 5844 5845 5846 5847 5847 5846 5846 5846 5847 5847 5849 5850 5850 5849 5850 5850 5852 5853 5855 5857 5858 5860 5862 5864 5864 5864 5865 5866 5867 5867 5867 5868 5870 5871 5873 5875 5876 5878 5881 5883 5884 5886 5888 5891 5893 5895 5897 5899 5901 5902 5904 5905 5906 5907 5908 5909 5910 5911 5911 5912 5913 5913 5914 5915 5915 5916 5917 5917 5918 5919 5919 5920 5920 5921 5921 5921 5921 5921 5921 5922 5922 5922
5839 5837 5837 5837 5839 5841 5842 5843 5843 5842 5841 5842 5842 5843 5844 5844 5845 5845 5845 5846 5848 5849 5852 5855 5857 5858 5861 5862 5862 5862 5863 5864 5865 5865 5865 5865 5866 5868 5870 5872 5875 5878 5879 5880 5882 5884 5886 5889 5891 5893 5895 5897 5899 5900 5901 5902 5903 5905 5906 5906 5907 5908 5909 5909 5910 5911 5912 5912 5913 5914 5914 5915 5916 5917 5917 5918 5918 5919 5919 5919 5919 5919 5919 5919 5919
5834 5832 5831 5830 5831 5833 5836 5837 5838 5837 5836 5837 5837 5838 5839 5840 5840 5840 5840 5841 5842 5845 5848 5851 5852 5854 5857 5858 5859 5860 5860 5862 5863 5862 5861 5862 5863 5864 5866 5868 5871 5874 5875 5876 5878 5880 5882 5885 5887 5889 5891 5893 5894 5896 5897 5898 5900 5901 5902 5902 5903 5904 5905 5906 5907 5907 5908 5909 5910 5911 5911 5912 5913 5914 5914 5915 5915 5916 5916 5917 5917 5917 5917 5917 5917
5831 5829 5827 5825 5825 5827 5829 5831 5832 5832 5831 5831 5832 5833 5834 5835 5835 5835 5836 5836 5837 5839 5842 5844 5846 5849 5851 5854 5855 5856 5856 5857 5858 5858 5858 5859 5860 5861 5862 5864 5867 5869 5871 5873 5875 5877 5879 5881 5883 5885 5886 5888 5889 5891 5893 5894 5895 5897 5898 5898 5899 5900 5901 5902 5903 5904 5904 5905 5906 5907 5908 5909 5909 5910 5911 5911 5912 5913 5913 5914 5914 5914 5914 5914 5914
5826 5825 5823 5822 5822 5823 5824 5825 5825 5826 5826 5826 5827 5828 5829 5830 5830 5830 5831 5832 5833 5834 5836 5839 5841 5843 5845 5848 5850 5852 5852 5853 5854 5854 5854 5856 5857 5858 5860 5861 5864 5865 5866 5869 5871 5874 5876 5878 5879 5880 5881 5883 5885 5886 5888 5889 5891 5892 5893 5894 5895 5896 5897 5898 5899 5899 5900 5901 5903 5903 5904 5905 5906 5907 5907 5908 5908 5909 5910 5910 5911 5911 5911 5911 5911
5819 5820 5818 5817 5818 5818 5818 5818 5819 5819 5819 5820 5822 5822 5823 5823 5824 5825 5826 5828 5829 5830 5832 5834 5836 5838 5840 5842 5846 5848 5848 5849 5850 5850 5851 5852 5854 5856 5856 5858 5860 5861 5861 5865 5868 5870 5872 5873 5874 5875 5877 5879 5880 5882 5884 5885 5887 5888 5889 5890 5891 5892 5893 5894 5894 5895 5896 5897 5898 5899 5900 5901 5902 5903 5903 5904 5905 5906 5906 5907 5907 5908 5908 5908 5908
5813 5814 5813 5813 5813 5812 5812 5812 5812 5812 5812 5814 5815 5815 5816 5817 5819 5820 5821 5822 5823 5824 5826 5828 5829 5831 5834 5837 5841 5843 5843 5844 5846 5847 5848 5849 5851 5852 5852 5854 5856 5857 5858 5861 5864 5866 5867 5868 5869 5871 5873 5875 5876 5878 5880 5882 5883 5883 5884 5885 5887 5888 5889 5890 5890 5891 5892 5893 5894 5895 5895 5896 5897 5899 5900 5900 5901 5902 5902 5903 5904 5904 5905 5905 5905
5808 5808 5808 5808 5807 5806 5806 5807 5807 5806 5807 5809 5809 5808 5810 5812 5813 5814 5815 5816 5817 5818 5820 5822 5823 5825 5828 5831 5835 5838 5838 5839 5841 5844 5846 5846 5847 5848 5849 5852 5854 5855 5856 5858 5860 5862 5862 5863 5865 5867 5869 5871 5872 5874 5876 5878 5879 5879 5879 5880 5882 5883 5884 5885 5886 5886 5887 5888 5889 5890 5891 5892 5893 5895 5896 5897 5898 5898 5898 5899 5900 5901 5901 5901 5902
5803 5802 5802 5802 5800 5799 5801 5802 5801 5801 5801 5803 5803 5802 5803 5805 5807 5808 5809 5811 5814 5814 5815 5817 5818 5819 5822 5825 5829 5832 5834 5835 5837 5840 5843 5843 5844 5845 5847 5850 5852 5853 5854 5855 5857 5858 5858 5860 5862 5863 5865 5867 5869 5871 5872 5873 5874 5874 5875 5876 5877 5878 5879 5880 5881 5882 5883 5883 5884 5886 5887 5888 5889 5891 5892 5893 5894 5895 5895 5895 5896 5897 5897 5897 5898
5796 5795 5795 5795 5793 5793 5794 5796 5796 5796 5795 5796 5796 5796 5796 5798 5801 5802 5803 5806 5809 5809 5809 5812 5813 5814 5816 5820 5823 5826 5829 5831 5834 5837 5839 5840 5841 5842 5845 5847 5849 5851 5852 5853 5855 5855 5855 5857 5859 5860 5862 5864 5865 5867 5868 5869 5869 5870 5871 5872 5873 5873 5874 5875 5876 5877 5879 5879 5881 5882 5882 5884 5885 5886 5888 5889 5890 5891 5892 5892 5892 5893 5893 5893 5894
5788 5788 5788 5788 5787 5787 5787 5788 5788 5789 5790 5790 5790 5789 5789 5791 5794 5796 5798 5800 5802 5803 5804 5807 5808 5809 5811 5815 5818 5821 5824 5826 5830 5833 5835 5836 5837 5839 5841 5843 5845 5847 5849 5851 5852 5852 5853 5855 5856 5857 5859 5860 5862 5863 5864 5865 5865 5866 5867 5867 5868 5869 5870 5872 5873 5874 5875 5876 5876 5877 5878 5880 5881 5882 5884 5885 5886 5887 5888 5889 5889 5889 5890 5890 5890
5782 5781 5781 5781 5781 5780 5780 5780 5780 5782 5783 5783 5784 5784 5783 5785 5787 5789 5792 5794 5795 5797 5799 5801 5803 5804 5806 5809 5812 5815 5818 5821 5825 5828 5830 5832 5833 5835 5838 5840 5842 5844 5846 5848 5849 5850 5850 5852 5853 5854 5855 5857 5858 5859 5860 5860 5861 5862 5863 5864 5865 5866 5867 5868 5869 5870 5871 5871 5872 5873 5874 5876 5877 5879 5880 5881 5882 5883 5884 5885 5886 5886 5886 5887 5887
5776 5776 5776 5775 5774 5774 5773 5773 5773 5775 5776 5776 5778 5778 5777 5778 5780 5782 5786 5789 5789 5791 5794 5797 5799 5799 5801 5804 5807 5810 5813 5816 5819 5822 5825 5828 5829 5831 5833 5835 5837 5839 5841 5844 5847 5846 5846 5847 5849 5851 5852 5853 5855 5855 5856 5857 5858 5859 5859 5860 5862 5863 5864 5865 5865 5866 5867 5868 5868 5869 5871 5872 5873 5875 5876 5877 5878 5879 5880 5880 5881 5882 5882 5883 5883
5770 5770 5770 5769 5768 5767 5766 5766 5767 5769 5770 5771 5772 5771 5771 5772 5774 5776 5780 5783 5784 5785 5788 5792 5794 5794 5795 5798 5802 5805 5808 5810 5813 5817 5821 5823 5825 5826 5829 5831 5833 5835 5836 5840 5843 5842 5841 5843 5845 5847 5849 5850 5851 5852 5853 5854 5854 5855 5856 5857 5858 5859 5860 5861 5862 5863 5864 5864 5865 5866 5867 5868 5870 5870 5871 5872 5873 5874 5875 5876 5877 5878 5879 5879 5880
5763 5763 5763 5762 5761 5760 5760 5760 5761 5763 5764 5765 5765 5765 5766 5767 5769 5770 5773 5776 5778 5779 5783 5787 5788 5788 5790 5792 5796 5800 5802 5805 5808 5812 5816 5819 5820 5822 5825 5828 5830 5831 5832 5835 5837 5837 5837 5839 5841 5843 5845 5847 5848 5848 5849 5850 5851 5851 5853 5854 5855 5856 5857 5858 5859 5859 5860 5861 5862 5863 5864 5865 5866 5866 5867 5868 5869 5870 5871 5871 5872 5874 5875 5876 5877
5758 5757 5756 5756 5756 5755 5755 5755 5756 5757 5758 5759 5760 5761 5762 5763 5764 5765 5767 5769 5771 5773 5777 5781 5782 5783 5784 5786 5789 5793 5797 5800 5803 5807 5811 5813 5815 5818 5821 5824 5826 5826 5828 5830 5832 5834 5834 5835 5836 5839 5841 5843 5844 5844 5845 5846 5847 5848 5849 5850 5851 5853 5854 5855 5856 5856 5856 5858 5859 5860 5860 5861 5862 5863 5863 5864 5864 5865 5866 5867 5869 5870 5871 5873 5874
5754 5752 5751 5751 5751 5750 5750 5751 5751 5752 5753 5754 5755 5756 5757 5758 5759 5760 5761 5763 5764 5767 5770 5774 5776 5778 5779 5781 5784 5787 5790 5794 5798 5802 5805 5808 5810 5814 5816 5819 5821 5823 5824 5826 5828 5830 5831 5831 5833 5835 5837 5839 5840 5841 5842 5843 5844 5845 5846 5846 5847 5849 5850 5851 5852 5852 5853 5854 5855 5856 5857 5858 5859 5859 5859 5860 5860 5861 5862 5863 5865 5866 5867 5868 5870
5749 5748 5746 5746 5746 5746 5746 5747 5748 5747 5747 5747 5748 5750 5751 5753 5754 5756 5757 5757 5759 5761 5764 5766 5769 5772 5775 5777 5780 5781 5784 5788 5793 5797 5799 5802 5806 5809 5811 5814 5816 5818 5820 5822 5824 5825 5826 5828 5829 5830 5832 5835 5836 5837 5839 5840 5841 5841 5842 5843 5844 5845 5846 5848 5849 5849 5850 5851 5852 5853 5854 5855 5856 5856 5856 5856 5856 5857 5858 5859 5861 5862 5863 5864 5865
5745 5743 5742 5742 5742 5742 5742 5742 5743 5742 5742 5742 5743 5745 5746 5748 5750 5752 5752 5753 5754 5755 5758 5760 5763 5766 5769 5773 5775 5776 5779 5783 5788 5792 5794 5797 5800 5803 5806 5809 5811 5814 5816 5817 5819 5821 5823 5825 5827 5828 5830 5832 5833 5834 5836 5837 5838 5838 5838 5839 5839 5840 5842 5843 5844 5845 5846 5847 5848 5849 5850 5851 5852 5852 5852 5853 5853 5854 5854 5855 5857 5858 5859 5860 5862
5740 5739 5737 5737 5737 5737 5737 5737 5738 5738 5738 5739 5740 5741 5742 5743 5745 5747 5747 5748 5748 5750 5752 5755 5757 5760 5763 5767 5770 5772 5775 5778 5782 5785 5789 5792 5794 5798 5802 5805 5807 5810 5812 5813 5814 5817 5820 5823 5825 5826 5827 5829 5831 5832 5833 5834 5835 5835 5834 5835 5835 5836 5837 5838 5840 5841 5842 5843 5844 5845 5846 5847 5848 5848 5849 5849 5850 5850 5851 5852 5853 5854 5855 5857 5858
5735 5734 5732 5732 5732 5732 5732 5732 5733 5734 5735 5735 5736 5737 5737 5738 5739 5740 5741 5742 5742 5744 5747 5749 5751 5754 5757 5761 5764 5767 5770 5774 5777 5780 5783 5786 5789 5793 5796 5800 5803 5805 5807 5808 5810 5812 5816 5819 5821 5823 5824 5826 5828 5829 5830 5830 5831 5831 5831 5831 5832 5832 5833 5834 5835 5837 5839 5839 5840 5841 5842 5843 5844 5845 5845 5846 5847 5848 5848 5849 5850 5851 5852 5853 5855
5731 5730 5729 5728 5728 5728 5728 5729 5729 5731 5732 5732 5733 5733 5733 5733 5734 5735 5735 5735 5736 5738 5740 5743 5745 5748 5752 5756 5759 5762 5765 5769 5773 5775 5778 5782 5784 5788 5792 5795 5798 5801 5802 5803 5805 5808 5811 5814 5817 5819 5821 5823 5825 5826 5827 5827 5827 5828 5828 5828 5828 5828 5829 5831 5832 5833 5835 5836 5837 5838 5839 5839 5840 5841 5842 5843 5844 5845 5845 5847 5848 5848 5849 5850 5851
5727 5726 5725 5725 5724 5725 5725 5726 5726 5727 5728 5728 5728 5728 5729 5729 5729 5729 5730 5730 5731 5733 5735 5737 5740 5743 5747 5751 5754 5757 5760 5764 5768 5772 5774 5777 5780 5784 5787 5789 5792 5795 5797 5799 5802 5805 5807 5809 5812 5814 5817 5819 5821 5821 5822 5823 5824 5824 5824 5824 5824 5824 5826 5827 5828 5829 5831 5833 5834 5835 5836 5836 5837 5837 5837 5839 5840 5841 5842 5844 5845 5845 5846 5847 5848
5725 5724 5723 5722 5722 5723 5723 5724 5724 5724 5725 5724 5724 5724 5725 5724 5725 5725 5726 5727 5727 5728 5730 5732 5734 5737 5741 5745 5748 5752 5755 5759 5764 5768 5770 5773 5776 5779 5782 5784 5787 5790 5792 5795 5798 5800 5803 5805 5808 5810 5813 5815 5816 5817 5818 5819 5820 5820 5820 5820 5820 5820 5821 5822 5823 5825 5828 5830 5831 5832 5832 5833 5834 5834 5834 5834 5835 5837 5838 5841 5842 5842 5843 5844 5844
5723 5722 5721 5720 5720 5720 5721 5721 5721 5721 5721 5721 5721 5721 5720 5721 5721 5722 5724 5724 5725 5725 5726 5728 5730 5732 5735 5739 5743 5747 5751 5755 5759 5763 5765 5767 5770 5773 5776 5779 5782 5784 5787 5790 5793 5796 5798 5801 5803 5807 5809 5810 5811 5812 5814 5814 5815 5815 5816 5816 5817 5816 5817 5818 5820 5822 5824 5826 5827 5828 5828 5830 5830 5831 5831 5831 5832 5833 5835 5837 5838 5838 5839 5840 5840
5722 5720 5719 5719 5718 5719 5719 5719 5718 5718 5718 5718 5718 5718 5717 5717 5718 5720 5721 5721 5721 5722 5724 5725 5727 5728 5731 5735 5738 5742 5745 5748 5752 5756 5759 5761 5764 5768 5770 5773 5776 5780 5783 5785 5787 5790 5793 5796 5799 5802 5804 5805 5806 5807 5808 5810 5810 5811 5811 5812 5813 5813 5813 5814 5816 5818 5820 5821 5823 5824 5825 5826 5827 5827 5828 5828 5829 5829 5831 5833 5834 5834 5835 5836 5837
5720 5719 5718 5717 5717 5717 5717 5716 5715 5715 5715 5715 5715 5716 5715 5715 5716 5718 5718 5718 5719 5720 5721 5722 5724 5725 5727 5730 5734 5737 5740 5743 5746 5750 5753 5756 5759 5762 5764 5767 5771 5775 5778 5780 5782 5785 5788 5791 5795 5797 5798 5799 5801 5802 5803 5805 5806 5806 5807 5808 5809 5809 5810 5811 5813 5815 5816 5817 5818 5819 5820 5822 5823 5824 5825 5825 5825 5826 5827 5829 5830 5831 5832 5832 5833
5718 5717 5716 5716 5716 5715 5715 5714 5713 5713 5712 5712 5713 5713 5714 5714 5714 5715 5715 5716 5717 5718 5719 5719 5721 5722 5724 5727 5730 5732 5735 5738 5741 5745 5748 5751 5754 5757 5760 5763 5766 5768 5771 5774 5777 5780 5783 5785 5789 5791 5792 5794 5796 5797 5798 5800 5801 5802 5803 5804 5805 5805 5805 5807 5808 5810 5811 5813 5814 5815 5816 5818 5819 5820 5821 5822 5822 5822 5823 5824 5826 5827 5828 5829 5829
5716 5715 5715 5714 5714 5714 5713 5712 5711 5711 5710 5710 5711 5711 5712 5712 5712 5713 5713 5714 5716 5716 5716 5717 5718 5720 5723 5725 5726 5728 5731 5733 5737 5740 5743 5746 5749 5752 5755 5759 5760 5761 5765 5768 5771 5775 5777 5779 5782 5785 5787 5789 5791 5792 5793 5795 5796 5798 5799 5800 5800 5800 5801 5803 5804 5805 5807 5808 5809 5810 5812 5813 5814 5815 5817 5818 5818 5819 5819 5820 5821 5823 5824 5825 5826
5714 5714 5714 5713 5712 5712 5711 5710 5709 5709 5708 5708 5708 5709 5710 5710 5710 5711 5712 5712 5713 5713 5714 5715 5716 5717 5720 5722 5724 5726 5727 5729 5732 5735 5738 5740 5744 5748 5750 5753 5754 5756 5759 5763 5766 5769 5772 5774 5777 5779 5782 5784 5786 5787 5788 5790 5792 5793 5794 5795 5796 5796 5797 5799 5800 5801 5803 5804 5804 5805 5807 5808 5809 5810 5812 5813 5814 5815 5815 5817 5818 5819 5820 5821 5823
5714 5713 5713 5712 5711 5710 5710 5708 5707 5707 5706 5706 5706 5707 5708 5709 5709 5710 5710 5709 5708 5710 5712 5713 5714 5714 5716 5718 5721 5722 5724 5726 5728 5730 5732 5736 5740 5743 5745 5747 5749 5750 5753 5756 5760 5763 5766 5769 5772 5774 5776 5779 5781 5782 5783 5785 5787 5788 5789 5791 5793 5793 5794 5795 5795 5797 5798 5799 5800 5801 5802 5804 5804 5805 5806 5808 5809 5810 5811 5813 5814 5815 5816 5818 5819
5713 5713 5712 5711 5710 5709 5708 5707 5706 5705 5704 5704 5704 5705 5706 5707 5707 5708 5707 5706 5706 5708 5710 5711 5712 5713 5714 5715 5716 5718 5720 5721 5723 5724 5727 5731 5734 5736 5739 5742 5744 5745 5746 5750 5753 5757 5760 5763 5766 5769 5771 5774 5776 5777 5779 5781 5783 5784 5785 5787 5789 5789 5790 5791 5792 5792 5793 5795 5796 5797 5798 5799 5800 5801 5802 5804 5805 5806 5807 5809 5810 5811 5813 5814 5815